Date String (YYYY-MM-DD hh:mm:ss) UTC,Instrument flags,absolute air pressure of the measurement (hPa),sample flow rate (lpm),inlet stack bypass flow (lpm),air temperature of the measurement (°C),ambient temperature measured by the external sensor (°C),aerosol sample conditioner tube jacket temperature (°C),OPC LED temperature (°C),internal box temperature (°C),relative humidity of the measurement (%),span deviation,mass concentration of particles derived from Lorenz-Mie calculation of OPC scattering (μg/m³),mass concentration of particles derived from Lorenz-Mie calculation of OPC scattering (μg/m³),mass concentration of particles derived from Lorenz-Mie calculation of OPC scattering (μg/m³)
DateTimeUTC,F1_M11,P_M11,Q1_M11,Q2_M11,T1_M11,T2_M11,T3_M11,T4_M11,T5_M11,U1_M11,ZSPAN_M11,X0_M11,X2_M11,X1_M11
2023-06-17 02:00:00,SystemResetWarning,0833.9,4.99,000.00,030.2,028.6,000.0,038.7,031.7,29.3,0000.0,0004.81,0001.88,0001.59
2023-06-17 02:01:00,SystemResetWarning,0833.9,4.99,000.00,030.2,028.6,000.0,038.8,031.7,29.1,0000.0,0005.40,0001.92,0001.59
2023-06-17 02:02:00,SystemResetWarning,0833.8,4.99,000.00,030.2,028.6,000.0,038.8,031.7,29.2,0000.0,0006.19,0001.93,0001.59
2023-06-17 02:03:00,SystemResetWarning,0833.8,5.00,000.00,030.2,028.6,000.0,038.8,031.7,29.2,0000.0,0006.11,0001.95,0001.60
2023-06-17 02:04:00,SystemResetWarning,0833.9,5.01,000.00,030.2,028.7,000.0,038.8,031.7,29.2,0000.0,0005.49,0001.96,0001.61
2023-06-17 02:05:00,SystemResetWarning,0833.9,5.01,000.00,030.2,028.7,000.0,038.8,031.8,29.2,0000.0,0005.58,0001.99,0001.62
2023-06-17 02:06:00,SystemResetWarning,0833.8,5.01,000.00,030.3,028.7,000.0,038.8,031.8,29.1,0000.0,0005.03,0001.97,0001.62
2023-06-17 02:07:00,SystemResetWarning,0833.8,5.00,000.00,030.3,028.7,000.0,038.8,031.7,29.0,0000.0,0004.91,0001.99,0001.62
2023-06-17 02:08:00,SystemResetWarning,0833.9,4.98,000.00,030.3,028.7,000.0,038.8,031.8,29.1,0000.0,0004.83,0001.99,0001.63
2023-06-17 02:09:00,SystemResetWarning,0833.9,5.00,000.00,030.3,028.7,000.0,038.8,031.8,29.0,0000.0,0005.69,0002.05,0001.65
2023-06-17 02:10:00,SystemResetWarning,0833.9,5.00,000.00,030.3,028.7,000.0,038.8,031.8,29.0,0000.0,0005.95,0002.09,0001.67
2023-06-17 02:11:00,SystemResetWarning,0833.9,5.01,000.00,030.3,028.7,000.0,038.9,031.8,29.0,0000.0,0005.89,0002.12,0001.68
2023-06-17 02:12:00,SystemResetWarning,0833.9,5.00,000.00,030.3,028.8,000.0,038.9,031.8,29.0,0000.0,0005.40,0002.10,0001.68
2023-06-17 02:13:00,SystemResetWarning,0833.9,5.00,000.00,030.3,028.8,000.0,038.9,031.9,29.0,0000.0,0004.72,0002.13,0001.69
2023-06-17 02:14:00,SystemResetWarning,0833.8,5.00,000.00,030.4,028.8,000.0,038.9,031.9,28.9,0000.0,0004.65,0002.14,0001.70
2023-06-17 02:15:00,SystemResetWarning,0833.9,4.99,000.00,030.4,028.8,000.0,038.9,031.9,29.0,0000.0,0004.64,0002.14,0001.70
2023-06-17 02:16:00,SystemResetWarning,0833.8,5.00,000.00,030.4,028.8,000.0,038.9,031.9,29.0,0000.0,0004.52,0002.10,0001.70
2023-06-17 02:17:00,SystemResetWarning,0833.9,4.99,000.00,030.4,028.8,000.0,038.9,031.9,29.0,0000.0,0004.40,0002.11,0001.71
2023-06-17 02:18:00,SystemResetWarning,0833.9,5.00,000.00,030.4,028.8,000.0,038.9,031.9,28.9,0000.0,0004.92,0002.10,0001.72
2023-06-17 02:19:00,SystemResetWarning,0833.9,5.01,000.00,030.4,028.8,000.0,038.9,031.9,28.9,0000.0,0005.32,0002.08,0001.72
2023-06-17 02:20:00,SystemResetWarning,0833.9,5.00,000.00,030.4,028.8,000.0,038.9,031.9,28.9,0000.0,0004.44,0002.03,0001.71
2023-06-17 02:21:00,SystemResetWarning,0833.9,5.01,000.00,030.4,028.8,000.0,038.9,031.9,28.9,0000.0,0004.67,0001.97,0001.70
2023-06-17 02:22:00,SystemResetWarning,0834.0,4.99,000.00,030.4,028.8,000.0,038.9,031.9,28.8,0000.0,0004.69,0001.99,0001.72
2023-06-17 02:23:00,SystemResetWarning,0833.9,5.00,000.00,030.4,028.8,000.0,039.0,031.9,28.8,0000.0,0004.77,0002.03,0001.75
2023-06-17 02:24:00,SystemResetWarning,0834.0,4.99,000.00,030.4,028.8,000.0,039.0,031.9,28.7,0000.0,0004.75,0002.04,0001.76
2023-06-17 02:25:00,SystemResetWarning,0834.0,4.99,000.00,030.4,028.8,000.0,039.0,031.9,28.7,0000.0,0004.83,0002.05,0001.77
2023-06-17 02:26:00,SystemResetWarning,0834.0,5.00,000.00,030.4,028.8,000.0,039.0,031.9,28.6,0000.0,0004.90,0002.08,0001.78
2023-06-17 02:27:00,SystemResetWarning,0834.0,5.01,000.00,030.5,028.8,000.0,039.0,031.9,28.5,0000.0,0005.01,0002.14,0001.79
2023-06-17 02:28:00,SystemResetWarning,0834.1,5.01,000.00,030.4,028.8,000.0,039.0,031.9,28.4,0000.0,0005.17,0002.18,0001.79
2023-06-17 02:29:00,SystemResetWarning,0834.0,5.00,000.00,030.5,028.8,000.0,039.0,031.9,28.4,0000.0,0004.63,0002.20,0001.80
2023-06-17 02:30:00,SystemResetWarning,0834.0,5.00,000.00,030.5,028.8,000.0,039.0,031.9,28.3,0000.0,0005.06,0002.21,0001.81
2023-06-17 02:31:00,SystemResetWarning,0834.0,5.00,000.00,030.5,028.8,000.0,039.0,031.9,28.3,0000.0,0005.13,0002.27,0001.83
2023-06-17 02:32:00,SystemResetWarning,0834.0,5.00,000.00,030.5,028.8,000.0,039.0,031.9,28.2,0000.0,0004.65,0002.32,0001.85
2023-06-17 02:33:00,SystemResetWarning,0834.0,5.00,000.00,030.5,028.9,000.0,039.0,032.0,28.2,0000.0,0004.70,0002.37,0001.85
2023-06-17 02:34:00,SystemResetWarning,0834.0,5.00,000.00,030.5,028.9,000.0,039.0,032.0,28.1,0000.0,0004.69,0002.36,0001.83
2023-06-17 02:35:00,SystemResetWarning,0834.0,5.00,000.00,030.5,028.9,000.0,039.0,032.0,28.2,0000.0,0004.55,0002.35,0001.82
2023-06-17 02:36:00,SystemResetWarning,0834.1,5.00,000.00,030.5,028.9,000.0,039.1,032.0,28.1,0000.0,0004.47,0002.36,0001.82
2023-06-17 02:37:00,SystemResetWarning,0834.1,5.00,000.00,030.5,028.9,000.0,039.0,032.0,28.1,0000.0,0004.51,0002.37,0001.81
2023-06-17 02:38:00,SystemResetWarning,0834.2,5.00,000.00,030.5,028.9,000.0,039.1,032.0,28.1,0000.0,0004.54,0002.38,0001.82
2023-06-17 02:39:00,SystemResetWarning,0834.2,5.00,000.00,030.5,029.0,000.0,039.1,032.1,28.1,0000.0,0004.34,0002.33,0001.82
2023-06-17 02:40:00,SystemResetWarning,0834.2,5.00,000.00,030.5,029.0,000.0,039.1,032.1,28.0,0000.0,0004.40,0002.37,0001.81
2023-06-17 02:41:00,SystemResetWarning,0834.2,5.00,000.00,030.5,029.0,000.0,039.1,032.0,28.0,0000.0,0003.54,0002.38,0001.80
2023-06-17 02:42:00,SystemResetWarning,0834.2,5.00,000.00,030.6,029.0,000.0,039.1,032.0,28.0,0000.0,0003.42,0002.33,0001.79
2023-06-17 02:43:00,SystemResetWarning,0834.1,5.00,000.00,030.6,029.0,000.0,039.1,032.0,28.0,0000.0,0003.39,0002.28,0001.77
2023-06-17 02:44:00,SystemResetWarning,0834.2,5.00,000.00,030.6,029.0,000.0,039.1,032.0,28.0,0000.0,0003.28,0002.23,0001.76
2023-06-17 02:45:00,SystemResetWarning,0834.2,5.00,000.00,030.6,029.0,000.0,039.1,032.1,28.0,0000.0,0003.23,0002.20,0001.75
2023-06-17 02:46:00,SystemResetWarning,0834.3,5.00,000.00,030.6,029.0,000.0,039.1,032.1,28.0,0000.0,0003.17,0002.18,0001.75
2023-06-17 02:47:00,SystemResetWarning,0834.5,5.00,000.00,030.6,029.0,000.0,039.1,032.0,28.0,0000.0,0003.12,0002.16,0001.74
2023-06-17 02:48:00,SystemResetWarning,0834.3,5.01,000.00,030.6,029.0,000.0,039.1,032.0,28.1,0000.0,0003.04,0002.14,0001.75
2023-06-17 02:49:00,SystemResetWarning,0834.3,5.00,000.00,030.6,029.0,000.0,039.1,032.0,28.1,0000.0,0002.91,0002.09,0001.75
2023-06-17 02:50:00,SystemResetWarning,0834.4,5.00,000.00,030.6,029.0,000.0,039.1,032.1,28.2,0000.0,0002.94,0002.08,0001.75
2023-06-17 02:51:00,SystemResetWarning,0834.4,5.00,000.00,030.6,029.0,000.0,039.2,032.0,28.1,0000.0,0002.86,0002.06,0001.76
2023-06-17 02:52:00,SystemResetWarning,0834.4,5.00,000.00,030.6,029.0,000.0,039.2,032.0,28.1,0000.0,0002.83,0002.06,0001.78
2023-06-17 02:53:00,SystemResetWarning,0834.3,5.00,000.00,030.6,029.0,000.0,039.2,032.1,28.2,0000.0,0002.93,0002.10,0001.79
2023-06-17 02:54:00,SystemResetWarning,0834.4,4.99,000.00,030.6,029.0,000.0,039.2,032.1,28.2,0000.0,0002.89,0002.11,0001.79
2023-06-17 02:55:00,SystemResetWarning,0834.4,5.00,000.00,030.6,029.1,000.0,039.2,032.1,28.1,0000.0,0002.80,0002.09,0001.79
2023-06-17 02:56:00,SystemResetWarning,0834.4,5.00,000.00,030.7,029.1,000.0,039.2,032.1,28.2,0000.0,0002.81,0002.09,0001.79
2023-06-17 02:57:00,SystemResetWarning,0834.4,5.00,000.00,030.7,029.1,000.0,039.2,032.1,28.2,0000.0,0003.03,0002.08,0001.79
2023-06-17 02:58:00,SystemResetWarning,0834.4,5.00,000.00,030.7,029.1,000.0,039.2,032.1,28.1,0000.0,0003.16,0002.06,0001.79
2023-06-17 02:59:00,SystemResetWarning,0834.4,5.00,000.00,030.7,029.1,000.0,039.2,032.1,28.1,0000.0,0003.16,0002.06,0001.79
